Location: Zaragoza
(41.6330°N, 0.8830°W)
Time: 19:54:54
(UTC+01:00)

ISS - Visible Passes

Search period start: 20 February 2018 00:00
Search period end: 02 March 2018 00:00
Orbit: 403 x 407 km, 51.6° (Epoch: 21 February)

Date Brightness Start Highest point End Pass type
(mag) Time Alt. Az. Time Alt. Az. Time Alt. Az.
25 Feb -1.7 07:13:19 10° SSW 07:16:10 28° SE 07:19:01 10° ENE visible
26 Feb -0.9 06:22:07 10° SSE 06:24:06 15° SE 06:26:04 10° E visible
27 Feb -3.5 07:04:42 10° SW 07:07:57 69° SE 07:11:13 10° ENE visible
28 Feb -2.4 06:13:43 17° SSW 06:15:45 35° SE 06:18:46 10° ENE visible
01 Mar -1.3 05:24:01 18° ESE 05:24:01 18° ESE 05:25:59 10° E visible
01 Mar -3.5 06:56:41 10° WSW 06:59:50 51° NNW 07:03:03 10° NE visible
